This demonstration page uses our WeatherBlox Daily Observations layout. Learn more.

Left ArrowRight Arrow

Hourly Observations for October 13, 2016

Temp ( °F °C ) Dew Point ( °F °C ) Humidity (%) Winds ( mph kmh ) Pressure ( in mb ) Visibility ( mi km ) Precip ( " mm )
12:51 am 00:51 Clear 59 15 45 7.2 60 60 ENE 3 6 29.91 1013 10 16 0.00 0.00
1:51 am 01:51 Clear 56 13.3 45 7.2 67 67 SE 7 11 29.91 1013 10 16 0.00 0.00
2:51 am 02:51 Clear 55 12.8 45 7.2 69 69 Calm 29.91 1013 10 16 0.00 0.00
3:51 am 03:51 Clear 53 11.7 46 7.8 77 77 SW 3 6 29.92 1013 10 16 0.00 0.00
4:51 am 04:51 Clear 54 12.2 38 3.3 55 55 Calm 29.93 1014 10 16 0.00 0.00
5:51 am 05:51 Clear 52 11.1 42 5.6 69 69 NNW 7 11 29.96 1015 10 16 0.00 0.00
6:51 am 06:51 Sunny 51 10.6 43 6.1 74 74 S 5 7 29.98 1015 10 16 0.00 0.00
7:51 am 07:51 Sunny 59 15 43 6.1 56 56 Calm 29.99 1016 10 16 0.00 0.00
8:51 am 08:51 Sunny 64 17.8 40 4.4 41 41 SSW 3 6 30.01 1016 10 16 0.00 0.00
9:51 am 09:51 Sunny 70 21.1 41 5 35 35 NNW 3 6 30.01 1016 10 16 0.00 0.00
10:51 am 10:51 Sunny 75 23.9 37 2.8 25 25 WNW 5 7 30.00 1016 10 16 0.00 0.00
11:51 am 11:51 Sunny 79 26.1 36 2.2 21 21 NNW 3 6 29.98 1015 10 16 0.00 0.00
12:51 pm 12:51 Sunny 82 27.8 34 1.1 18 18 N 5 7 29.93 1014 10 16 0.00 0.00
1:51 pm 13:51 Sunny 84 28.9 35 1.7 17 17 VRB 3 6 29.90 1013 10 16 0.00 0.00
2:51 pm 14:51 Sunny 85 29.4 33 0.6 15 15 VRB 6 9 29.88 1012 10 16 0.00 0.00
3:51 pm 15:51 Sunny 84 28.9 28 -2.2 13 13 W 6 9 29.89 1012 10 16 0.00 0.00
4:51 pm 16:51 Sunny 83 28.3 30 -1.1 15 15 SW 6 9 29.88 1012 10 16 0.00 0.00
5:51 pm 17:51 Clear 78 25.6 35 1.7 21 21 SSW 5 7 29.90 1013 10 16 0.00 0.00
6:51 pm 18:51 Clear with Light Rain 70 21.1 42 5.6 37 37 Calm 29.93 1014 10 16 0.00 0.03
7:51 pm 19:51 Clear 65 18.3 42 5.6 43 43 NNE 6 9 29.95 1014 10 16 0.00 0.03
8:51 pm 20:51 Clear with Light Rain 64 17.8 41 5 43 43 NE 8 13 29.95 1014 10 16 0.00 0.03
9:51 pm 21:51 Clear with Light Rain 62 16.7 39 3.9 43 43 E 7 11 29.96 1014 10 16 0.00 0.03
10:51 pm 22:51 Clear 64 17.8 38 3.3 38 38 Calm 29.95 1014 10 16 0.00 0.03
11:51 pm 23:51 Clear 55 12.8 43 6.1 64 64 Calm 29.96 1015 10 16 0.00 0.00

Powered by AerisWeather